owner,sensor,date,latitude,longitude,vertical_datum,sea_water_temperature,qcFlag
Shell,ioos:station:wmo:42882:1,2023-10-01T00:06:00Z,26.2748,-94.4289,7.8,31.1,11111222
Shell,ioos:station:wmo:42882:1,2023-10-01T00:16:00Z,26.2750,-94.4317,7.8,31.1,11111222
Shell,ioos:station:wmo:42882:1,2023-10-01T00:26:00Z,26.2750,-94.4317,7.8,31.1,11111222
Shell,ioos:station:wmo:42882:1,2023-10-01T00:36:00Z,26.2750,-94.4317,7.8,31.1,11111222
Shell,ioos:station:wmo:42882:1,2023-10-01T00:46:00Z,26.2750,-94.4317,7.7,31.1,11111222
Shell,ioos:station:wmo:42882:1,2023-10-01T00:56:00Z,26.2750,-94.4317,7.7,31.1,11111222
Shell,ioos:station:wmo:42882:1,2023-10-01T01:06:00Z,26.2750,-94.4317,7.7,31.1,11111222
Shell,ioos:station:wmo:42882:1,2023-10-01T01:16:00Z,26.2750,-94.4317,7.7,31.1,11111222
Shell,ioos:station:wmo:42882:1,2023-10-01T01:26:00Z,26.2750,-94.4317,7.7,31.1,11111222
Shell,ioos:station:wmo:42882:1,2023-10-01T01:36:00Z,26.2750,-94.4317,7.7,31.1,11111222
Shell,ioos:station:wmo:42882:1,2023-10-01T01:46:00Z,26.2750,-94.4317,7.7,31.1,11111222
Shell,ioos:station:wmo:42882:1,2023-10-01T01:56:00Z,26.2750,-94.4317,7.8,31.1,11111222
Shell,ioos:station:wmo:42882:1,2023-10-01T02:06:00Z,26.2750,-94.4317,7.8,31.1,11111222
Shell,ioos:station:wmo:42882:1,2023-10-01T02:16:00Z,26.2750,-94.4317,7.8,31.1,11111222
Shell,ioos:station:wmo:42882:1,2023-10-01T02:26:00Z,26.2750,-94.4317,7.7,31.1,11111222
Shell,ioos:station:wmo:42882:1,2023-10-01T02:36:00Z,26.2750,-94.4317,7.7,31.1,11111222
Shell,ioos:station:wmo:42882:1,2023-10-01T02:46:00Z,26.2750,-94.4317,7.7,31.1,11111222
Shell,ioos:station:wmo:42882:1,2023-10-01T02:56:00Z,26.2750,-94.4317,7.7,31.1,11111222
Shell,ioos:station:wmo:42882:1,2023-10-01T03:06:00Z,26.2750,-94.4317,7.7,31.1,11111222
Shell,ioos:station:wmo:42882:1,2023-10-01T03:16:00Z,26.2750,-94.4317,7.8,31.1,11111222
Shell,ioos:station:wmo:42882:1,2023-10-01T03:26:00Z,26.2750,-94.4317,7.9,31.1,11111222
Shell,ioos:station:wmo:42882:1,2023-10-01T03:36:00Z,26.2750,-94.4317,7.9,31.1,11111222
Shell,ioos:station:wmo:42882:1,2023-10-01T03:46:00Z,26.2750,-94.4317,7.9,31.1,11111222
Shell,ioos:station:wmo:42882:1,2023-10-01T03:56:00Z,26.2750,-94.4317,7.9,31.1,11111222
Shell,ioos:station:wmo:42882:1,2023-10-01T04:06:00Z,26.2750,-94.4317,7.7,31.1,11111222
Shell,ioos:station:wmo:42882:1,2023-10-01T04:16:00Z,26.2750,-94.4317,7.6,31.1,11111222
Shell,ioos:station:wmo:42882:1,2023-10-01T04:26:00Z,26.2750,-94.4317,7.7,31.1,11111222
Shell,ioos:station:wmo:42882:1,2023-10-01T04:36:00Z,26.2750,-94.4317,7.6,31.1,11111222
Shell,ioos:station:wmo:42882:1,2023-10-01T04:46:00Z,26.2750,-94.4317,7.6,31.1,11111222
Shell,ioos:station:wmo:42882:1,2023-10-01T04:56:00Z,26.2750,-94.4317,7.6,31.1,11111222
Shell,ioos:station:wmo:42882:1,2023-10-01T05:06:00Z,26.2748,-94.4289,7.6,31.1,11111222
Shell,ioos:station:wmo:42882:1,2023-10-01T05:16:00Z,26.2748,-94.4289,7.6,31.1,11111222
Shell,ioos:station:wmo:42882:1,2023-10-01T05:26:00Z,26.2748,-94.4289,7.6,31.1,11111222
Shell,ioos:station:wmo:42882:1,2023-10-01T05:36:00Z,26.2748,-94.4289,7.6,31.0,11111222
Shell,ioos:station:wmo:42882:1,2023-10-01T05:46:00Z,26.2748,-94.4289,7.7,31.0,11111222
Shell,ioos:station:wmo:42882:1,2023-10-01T05:56:00Z,26.2748,-94.4289,7.7,31.0,11111222
Shell,ioos:station:wmo:42882:1,2023-10-01T06:06:00Z,26.2748,-94.4289,7.7,31.0,11111222
Shell,ioos:station:wmo:42882:1,2023-10-01T06:16:00Z,26.2748,-94.4289,7.7,31.0,11111222
Shell,ioos:station:wmo:42882:1,2023-10-01T06:26:00Z,26.2748,-94.4289,7.7,31.0,11111222
Shell,ioos:station:wmo:42882:1,2023-10-01T06:36:00Z,26.2748,-94.4289,7.7,31.0,11111222
Shell,ioos:station:wmo:42882:1,2023-10-01T06:46:00Z,26.2748,-94.4289,7.7,31.0,11111222
Shell,ioos:station:wmo:42882:1,2023-10-01T06:56:00Z,26.2748,-94.4289,7.7,31.0,11111222
Shell,ioos:station:wmo:42882:1,2023-10-01T07:06:00Z,26.2748,-94.4289,7.7,31.0,11111222
Shell,ioos:station:wmo:42882:1,2023-10-01T07:16:00Z,26.2748,-94.4289,7.7,31.0,11111222
Shell,ioos:station:wmo:42882:1,2023-10-01T07:26:00Z,26.2748,-94.4289,7.7,31.0,11111222
Shell,ioos:station:wmo:42882:1,2023-10-01T07:36:00Z,26.2748,-94.4289,7.7,31.0,11111222
Shell,ioos:station:wmo:42882:1,2023-10-01T07:46:00Z,26.2748,-94.4289,7.7,31.0,11111222
Shell,ioos:station:wmo:42882:1,2023-10-01T07:56:00Z,26.2748,-94.4289,7.7,31.0,11111222
Shell,ioos:station:wmo:42882:1,2023-10-01T08:06:00Z,26.2748,-94.4289,7.7,31.0,11111222
Shell,ioos:station:wmo:42882:1,2023-10-01T08:16:00Z,26.2748,-94.4289,7.7,31.0,11111222
Shell,ioos:station:wmo:42882:1,2023-10-01T08:26:00Z,26.2748,-94.4289,7.8,31.0,11111222
Shell,ioos:station:wmo:42882:1,2023-10-01T08:36:00Z,26.2748,-94.4289,7.8,31.0,11111222
Shell,ioos:station:wmo:42882:1,2023-10-01T08:46:00Z,26.2748,-94.4289,7.8,31.0,11111222
Shell,ioos:station:wmo:42882:1,2023-10-01T08:56:00Z,26.2748,-94.4289,7.8,31.0,11111222
Shell,ioos:station:wmo:42882:1,2023-10-01T09:06:00Z,26.2748,-94.4289,7.8,31.0,11111222
Shell,ioos:station:wmo:42882:1,2023-10-01T09:16:00Z,26.2748,-94.4289,7.8,31.0,11111222
Shell,ioos:station:wmo:42882:1,2023-10-01T09:26:00Z,26.2748,-94.4289,7.8,31.0,11111222
Shell,ioos:station:wmo:42882:1,2023-10-01T09:36:00Z,26.2748,-94.4289,7.8,31.0,11111222
Shell,ioos:station:wmo:42882:1,2023-10-01T09:46:00Z,26.2748,-94.4289,7.6,31.0,11111222
Shell,ioos:station:wmo:42882:1,2023-10-01T09:56:00Z,26.2748,-94.4289,7.6,31.0,11111222
Shell,ioos:station:wmo:42882:1,2023-10-01T10:06:00Z,26.2748,-94.4289,7.5,31.0,11111222
Shell,ioos:station:wmo:42882:1,2023-10-01T10:16:00Z,26.2748,-94.4289,8.0,31.0,11111222
Shell,ioos:station:wmo:42882:1,2023-10-01T10:26:00Z,26.2748,-94.4289,8.2,31.1,11111222
Shell,ioos:station:wmo:42882:1,2023-10-01T10:36:00Z,26.2748,-94.4289,8.1,31.1,11111222
Shell,ioos:station:wmo:42882:1,2023-10-01T10:46:00Z,26.2748,-94.4289,7.9,31.1,11111222
Shell,ioos:station:wmo:42882:1,2023-10-01T10:56:00Z,26.2748,-94.4289,7.9,31.1,11111222
Shell,ioos:station:wmo:42882:1,2023-10-01T11:06:00Z,26.2748,-94.4289,7.8,31.1,11111222
Shell,ioos:station:wmo:42882:1,2023-10-01T11:16:00Z,26.2748,-94.4289,7.8,31.1,11111222
Shell,ioos:station:wmo:42882:1,2023-10-01T11:26:00Z,26.2748,-94.4289,7.8,31.1,11111222
Shell,ioos:station:wmo:42882:1,2023-10-01T11:36:00Z,26.2748,-94.4289,7.7,31.1,11111222
Shell,ioos:station:wmo:42882:1,2023-10-01T11:46:00Z,26.2748,-94.4289,7.7,31.1,11111222
Shell,ioos:station:wmo:42882:1,2023-10-01T11:56:00Z,26.2748,-94.4289,7.7,31.1,11111222
Shell,ioos:station:wmo:42882:1,2023-10-01T12:06:00Z,26.2748,-94.4289,7.7,31.1,11111222
Shell,ioos:station:wmo:42882:1,2023-10-01T12:16:00Z,26.2748,-94.4289,7.8,31.1,11111222
Shell,ioos:station:wmo:42882:1,2023-10-01T12:26:00Z,26.2748,-94.4289,7.9,31.1,11111222
Shell,ioos:station:wmo:42882:1,2023-10-01T12:36:00Z,26.2748,-94.4289,7.9,31.1,11111222
Shell,ioos:station:wmo:42882:1,2023-10-01T12:46:00Z,26.2748,-94.4289,7.9,31.1,11111222
Shell,ioos:station:wmo:42882:1,2023-10-01T12:56:00Z,26.2748,-94.4289,7.9,31.1,11111222
Shell,ioos:station:wmo:42882:1,2023-10-01T13:06:00Z,26.2748,-94.4289,7.8,31.1,11111222
Shell,ioos:station:wmo:42882:1,2023-10-01T13:16:00Z,26.2748,-94.4289,7.9,31.1,11111222
Shell,ioos:station:wmo:42882:1,2023-10-01T13:26:00Z,26.2748,-94.4289,7.9,31.1,11111222
Shell,ioos:station:wmo:42882:1,2023-10-01T13:36:00Z,26.2748,-94.4289,7.6,31.1,11111222
Shell,ioos:station:wmo:42882:1,2023-10-01T13:46:00Z,26.2748,-94.4289,7.8,31.1,11111222
Shell,ioos:station:wmo:42882:1,2023-10-01T13:56:00Z,26.2748,-94.4289,7.8,31.2,11111222
Shell,ioos:station:wmo:42882:1,2023-10-01T14:06:00Z,26.2748,-94.4289,7.8,31.2,11111222
Shell,ioos:station:wmo:42882:1,2023-10-01T14:16:00Z,26.2748,-94.4289,7.8,31.2,11111222
Shell,ioos:station:wmo:42882:1,2023-10-01T14:26:00Z,26.2748,-94.4289,7.8,31.2,11111222
Shell,ioos:station:wmo:42882:1,2023-10-01T14:36:00Z,26.2748,-94.4289,7.9,31.2,11111222
Shell,ioos:station:wmo:42882:1,2023-10-01T14:46:00Z,26.2748,-94.4288,7.9,31.2,11111222
Shell,ioos:station:wmo:42882:1,2023-10-01T14:56:00Z,26.2748,-94.4289,7.9,31.2,11111222
Shell,ioos:station:wmo:42882:1,2023-10-01T15:06:00Z,26.2748,-94.4289,7.9,31.2,11111222
Shell,ioos:station:wmo:42882:1,2023-10-01T15:16:00Z,26.2748,-94.4289,7.9,31.3,11111222
Shell,ioos:station:wmo:42882:1,2023-10-01T15:26:00Z,26.2748,-94.4288,7.9,31.3,11111222
Shell,ioos:station:wmo:42882:1,2023-10-01T15:36:00Z,26.2748,-94.4289,7.9,31.3,11111222
Shell,ioos:station:wmo:42882:1,2023-10-01T15:46:00Z,26.2748,-94.4289,7.9,31.3,11111222
Shell,ioos:station:wmo:42882:1,2023-10-01T15:56:00Z,26.2748,-94.4289,7.9,31.3,11111222
Shell,ioos:station:wmo:42882:1,2023-10-01T16:06:00Z,26.2748,-94.4289,7.9,31.3,11111222
Shell,ioos:station:wmo:42882:1,2023-10-01T16:16:00Z,26.2748,-94.4289,7.9,31.3,11111222
Shell,ioos:station:wmo:42882:1,2023-10-01T16:26:00Z,26.2748,-94.4289,7.8,31.3,11111222
Shell,ioos:station:wmo:42882:1,2023-10-01T16:36:00Z,26.2748,-94.4289,7.8,31.3,11111222
Shell,ioos:station:wmo:42882:1,2023-10-01T16:46:00Z,26.2748,-94.4289,7.8,31.3,11111222
Shell,ioos:station:wmo:42882:1,2023-10-01T16:56:00Z,26.2748,-94.4289,7.8,31.3,11111222
Shell,ioos:station:wmo:42882:1,2023-10-01T17:06:00Z,26.2748,-94.4289,7.8,31.3,11111222
Shell,ioos:station:wmo:42882:1,2023-10-01T17:16:00Z,26.2748,-94.4289,7.8,31.3,11111222
Shell,ioos:station:wmo:42882:1,2023-10-01T17:26:00Z,26.2748,-94.4289,7.7,31.3,11111222
Shell,ioos:station:wmo:42882:1,2023-10-01T17:36:00Z,26.2748,-94.4289,7.9,31.3,11111222
Shell,ioos:station:wmo:42882:1,2023-10-01T17:46:00Z,26.2748,-94.4289,8.0,31.2,11111222
Shell,ioos:station:wmo:42882:1,2023-10-01T17:56:00Z,26.2748,-94.4289,8.0,31.2,11111222
Shell,ioos:station:wmo:42882:1,2023-10-01T18:06:00Z,26.2748,-94.4289,8.1,31.2,11111222
Shell,ioos:station:wmo:42882:1,2023-10-01T18:16:00Z,26.2748,-94.4289,8.1,31.2,11111222
Shell,ioos:station:wmo:42882:1,2023-10-01T18:26:00Z,26.2748,-94.4289,8.1,31.2,11111222
Shell,ioos:station:wmo:42882:1,2023-10-01T18:36:00Z,26.2748,-94.4289,8.1,31.2,11111222
Shell,ioos:station:wmo:42882:1,2023-10-01T18:46:00Z,26.2748,-94.4289,8.0,31.2,11111222
Shell,ioos:station:wmo:42882:1,2023-10-01T18:56:00Z,26.2748,-94.4289,8.0,31.2,11111222
Shell,ioos:station:wmo:42882:1,2023-10-01T19:06:00Z,26.2748,-94.4289,8.0,31.2,11111222
Shell,ioos:station:wmo:42882:1,2023-10-01T19:16:00Z,26.2748,-94.4289,8.0,31.2,11111222
Shell,ioos:station:wmo:42882:1,2023-10-01T19:26:00Z,26.2748,-94.4289,8.0,31.1,11111222
Shell,ioos:station:wmo:42882:1,2023-10-01T19:36:00Z,26.2748,-94.4289,8.1,31.1,11111222
Shell,ioos:station:wmo:42882:1,2023-10-01T19:46:00Z,26.2748,-94.4289,8.0,31.1,11111222
Shell,ioos:station:wmo:42882:1,2023-10-01T19:56:00Z,26.2748,-94.4289,7.9,31.1,11111222
Shell,ioos:station:wmo:42882:1,2023-10-01T20:06:00Z,26.2748,-94.4289,7.8,31.1,11111222
Shell,ioos:station:wmo:42882:1,2023-10-01T20:16:00Z,26.2747,-94.4288,7.8,31.1,11111222
Shell,ioos:station:wmo:42882:1,2023-10-01T20:26:00Z,26.2746,-94.4288,7.9,31.1,11111222
Shell,ioos:station:wmo:42882:1,2023-10-01T20:36:00Z,26.2746,-94.4288,7.9,31.1,11111222
Shell,ioos:station:wmo:42882:1,2023-10-01T20:46:00Z,26.2746,-94.4288,7.9,31.1,11111222
Shell,ioos:station:wmo:42882:1,2023-10-01T20:56:00Z,26.2746,-94.4288,7.9,31.1,11111222
Shell,ioos:station:wmo:42882:1,2023-10-01T21:06:00Z,26.2746,-94.4288,7.8,31.1,11111222
Shell,ioos:station:wmo:42882:1,2023-10-01T21:16:00Z,26.2746,-94.4288,7.8,31.1,11111222
Shell,ioos:station:wmo:42882:1,2023-10-01T21:26:00Z,26.2746,-94.4288,7.9,31.1,11111222
Shell,ioos:station:wmo:42882:1,2023-10-01T21:36:00Z,26.2746,-94.4288,7.9,31.1,11111222
Shell,ioos:station:wmo:42882:1,2023-10-01T21:46:00Z,26.2746,-94.4288,7.9,31.1,11111222
Shell,ioos:station:wmo:42882:1,2023-10-01T21:56:00Z,26.2746,-94.4288,7.9,31.1,11111222
Shell,ioos:station:wmo:42882:1,2023-10-01T22:06:00Z,26.2746,-94.4288,7.9,31.1,11111222
Shell,ioos:station:wmo:42882:1,2023-10-01T22:16:00Z,26.2746,-94.4288,7.6,31.1,11111222
Shell,ioos:station:wmo:42882:1,2023-10-01T22:26:00Z,26.2746,-94.4288,7.6,31.1,11111222
Shell,ioos:station:wmo:42882:1,2023-10-01T22:36:00Z,26.2746,-94.4288,7.5,31.1,11111222
Shell,ioos:station:wmo:42882:1,2023-10-01T22:46:00Z,26.2746,-94.4288,7.6,31.1,11111222
Shell,ioos:station:wmo:42882:1,2023-10-01T22:56:00Z,26.2746,-94.4288,7.5,31.1,11111222
Shell,ioos:station:wmo:42882:1,2023-10-01T23:06:00Z,26.2746,-94.4288,7.6,31.1,11111222
Shell,ioos:station:wmo:42882:1,2023-10-01T23:16:00Z,26.2746,-94.4288,7.7,31.1,11111222
Shell,ioos:station:wmo:42882:1,2023-10-01T23:26:00Z,26.2746,-94.4288,7.7,31.0,11111222
Shell,ioos:station:wmo:42882:1,2023-10-01T23:36:00Z,26.2746,-94.4288,7.7,31.0,11111222
Shell,ioos:station:wmo:42882:1,2023-10-01T23:46:00Z,26.2746,-94.4288,7.7,31.1,11111222
Shell,ioos:station:wmo:42882:1,2023-10-01T23:56:00Z,26.2746,-94.4288,7.9,31.0,11111222
Shell,ioos:station:wmo:42882:1,2023-10-02T00:06:00Z,26.2746,-94.4288,7.8,31.1,11111222
Shell,ioos:station:wmo:42882:1,2023-10-02T00:16:00Z,26.2750,-94.4317,7.7,31.1,11111222
Shell,ioos:station:wmo:42882:1,2023-10-02T00:26:00Z,26.2750,-94.4317,7.8,31.1,11111222
Shell,ioos:station:wmo:42882:1,2023-10-02T00:36:00Z,26.2750,-94.4317,7.7,31.0,11111222
Shell,ioos:station:wmo:42882:1,2023-10-02T00:46:00Z,26.2750,-94.4317,7.8,31.0,11111222
Shell,ioos:station:wmo:42882:1,2023-10-02T00:56:00Z,26.2750,-94.4317,7.6,31.0,11111222
Shell,ioos:station:wmo:42882:1,2023-10-02T01:06:00Z,26.2750,-94.4317,7.5,31.0,11111222
Shell,ioos:station:wmo:42882:1,2023-10-02T01:16:00Z,26.2750,-94.4317,7.6,31.0,11111222
Shell,ioos:station:wmo:42882:1,2023-10-02T01:26:00Z,26.2750,-94.4317,7.7,31.0,11111222
Shell,ioos:station:wmo:42882:1,2023-10-02T01:36:00Z,26.2750,-94.4317,8.0,31.0,11111222
Shell,ioos:station:wmo:42882:1,2023-10-02T01:46:00Z,26.2750,-94.4317,8.1,31.0,11111222
Shell,ioos:station:wmo:42882:1,2023-10-02T01:56:00Z,26.2750,-94.4317,8.0,31.0,11111222
Shell,ioos:station:wmo:42882:1,2023-10-02T02:06:00Z,26.2750,-94.4317,8.0,31.0,11111222
Shell,ioos:station:wmo:42882:1,2023-10-02T02:16:00Z,26.2750,-94.4317,7.9,30.9,11111222
Shell,ioos:station:wmo:42882:1,2023-10-02T02:26:00Z,26.2750,-94.4317,7.8,30.9,11111222
Shell,ioos:station:wmo:42882:1,2023-10-02T02:36:00Z,26.2750,-94.4317,7.8,30.9,11111222
Shell,ioos:station:wmo:42882:1,2023-10-02T02:46:00Z,26.2750,-94.4317,8.0,30.9,11111222
Shell,ioos:station:wmo:42882:1,2023-10-02T02:56:00Z,26.2750,-94.4317,7.9,30.9,11111222
Shell,ioos:station:wmo:42882:1,2023-10-02T03:06:00Z,26.2750,-94.4317,7.9,30.9,11111222
Shell,ioos:station:wmo:42882:1,2023-10-02T03:16:00Z,26.2750,-94.4317,7.9,30.9,11111222
Shell,ioos:station:wmo:42882:1,2023-10-02T03:26:00Z,26.2750,-94.4317,7.9,30.9,11111222
Shell,ioos:station:wmo:42882:1,2023-10-02T03:36:00Z,26.2750,-94.4317,7.8,30.9,11111222
Shell,ioos:station:wmo:42882:1,2023-10-02T03:46:00Z,26.2750,-94.4317,7.8,30.9,11111222
Shell,ioos:station:wmo:42882:1,2023-10-02T03:56:00Z,26.2750,-94.4317,7.8,30.9,11111222
Shell,ioos:station:wmo:42882:1,2023-10-02T04:06:00Z,26.2750,-94.4317,7.9,30.9,11111222
Shell,ioos:station:wmo:42882:1,2023-10-02T04:16:00Z,26.2750,-94.4317,7.9,30.9,11111222
Shell,ioos:station:wmo:42882:1,2023-10-02T04:26:00Z,26.2750,-94.4317,7.8,30.9,11111222
Shell,ioos:station:wmo:42882:1,2023-10-02T04:36:00Z,26.2750,-94.4317,7.7,30.9,11111222
Shell,ioos:station:wmo:42882:1,2023-10-02T04:46:00Z,26.2750,-94.4317,7.8,30.9,11111222
Shell,ioos:station:wmo:42882:1,2023-10-02T04:56:00Z,26.2750,-94.4317,8.0,30.9,11111222
Shell,ioos:station:wmo:42882:1,2023-10-02T05:06:00Z,26.2748,-94.4289,8.0,30.9,11111222
Shell,ioos:station:wmo:42882:1,2023-10-02T05:16:00Z,26.2748,-94.4289,8.1,30.9,11111222
Shell,ioos:station:wmo:42882:1,2023-10-02T05:26:00Z,26.2748,-94.4289,8.0,30.9,11111222
Shell,ioos:station:wmo:42882:1,2023-10-02T05:36:00Z,26.2748,-94.4289,7.7,30.9,11111222
Shell,ioos:station:wmo:42882:1,2023-10-02T05:46:00Z,26.2748,-94.4289,7.7,30.9,11111222
Shell,ioos:station:wmo:42882:1,2023-10-02T05:56:00Z,26.2748,-94.4289,8.0,30.9,11111222
Shell,ioos:station:wmo:42882:1,2023-10-02T06:06:00Z,26.2748,-94.4289,7.9,30.9,11111222
Shell,ioos:station:wmo:42882:1,2023-10-02T06:16:00Z,26.2748,-94.4289,7.9,30.9,11111222
Shell,ioos:station:wmo:42882:1,2023-10-02T06:26:00Z,26.2748,-94.4289,7.9,30.9,11111222
Shell,ioos:station:wmo:42882:1,2023-10-02T06:36:00Z,26.2748,-94.4289,7.8,30.9,11111222
Shell,ioos:station:wmo:42882:1,2023-10-02T06:46:00Z,26.2748,-94.4289,7.9,30.9,11111222
Shell,ioos:station:wmo:42882:1,2023-10-02T06:56:00Z,26.2748,-94.4289,7.9,30.9,11111222
Shell,ioos:station:wmo:42882:1,2023-10-02T07:06:00Z,26.2748,-94.4289,7.9,30.9,11111222
Shell,ioos:station:wmo:42882:1,2023-10-02T07:16:00Z,26.2748,-94.4289,7.9,30.9,11111222
Shell,ioos:station:wmo:42882:1,2023-10-02T07:26:00Z,26.2748,-94.4289,7.9,30.9,11111222
Shell,ioos:station:wmo:42882:1,2023-10-02T07:36:00Z,26.2748,-94.4289,8.0,30.9,11111222
Shell,ioos:station:wmo:42882:1,2023-10-02T07:46:00Z,26.2748,-94.4289,8.0,30.9,11111222
Shell,ioos:station:wmo:42882:1,2023-10-02T07:56:00Z,26.2748,-94.4289,8.0,30.9,11111222
Shell,ioos:station:wmo:42882:1,2023-10-02T08:06:00Z,26.2748,-94.4289,8.0,30.9,11111222
Shell,ioos:station:wmo:42882:1,2023-10-02T08:16:00Z,26.2748,-94.4289,8.0,30.9,11111222
Shell,ioos:station:wmo:42882:1,2023-10-02T08:26:00Z,26.2748,-94.4289,8.0,30.9,11111222
Shell,ioos:station:wmo:42882:1,2023-10-02T08:36:00Z,26.2748,-94.4289,8.0,30.9,11111222
Shell,ioos:station:wmo:42882:1,2023-10-02T08:46:00Z,26.2748,-94.4289,8.0,30.9,11111222
Shell,ioos:station:wmo:42882:1,2023-10-02T08:56:00Z,26.2748,-94.4289,8.0,30.9,11111222
Shell,ioos:station:wmo:42882:1,2023-10-02T09:06:00Z,26.2748,-94.4289,8.0,30.9,11111222
Shell,ioos:station:wmo:42882:1,2023-10-02T09:16:00Z,26.2748,-94.4289,8.0,30.9,11111222
Shell,ioos:station:wmo:42882:1,2023-10-02T09:26:00Z,26.2748,-94.4289,7.9,30.9,11111222
Shell,ioos:station:wmo:42882:1,2023-10-02T09:36:00Z,26.2748,-94.4289,7.8,30.9,11111222
Shell,ioos:station:wmo:42882:1,2023-10-02T09:46:00Z,26.2748,-94.4289,7.9,30.9,11111222
Shell,ioos:station:wmo:42882:1,2023-10-02T09:56:00Z,26.2748,-94.4289,7.9,30.9,11111222
Shell,ioos:station:wmo:42882:1,2023-10-02T10:06:00Z,26.2748,-94.4289,7.9,30.9,11111222
Shell,ioos:station:wmo:42882:1,2023-10-02T10:16:00Z,26.2748,-94.4288,7.9,30.9,11111222
Shell,ioos:station:wmo:42882:1,2023-10-02T10:26:00Z,26.2748,-94.4289,8.0,30.9,11111222
Shell,ioos:station:wmo:42882:1,2023-10-02T10:36:00Z,26.2748,-94.4289,8.1,30.9,11111222
Shell,ioos:station:wmo:42882:1,2023-10-02T10:46:00Z,26.2748,-94.4289,8.0,30.9,11111222
Shell,ioos:station:wmo:42882:1,2023-10-02T10:56:00Z,26.2748,-94.4289,8.0,30.9,11111222
Shell,ioos:station:wmo:42882:1,2023-10-02T11:06:00Z,26.2748,-94.4289,8.0,30.9,11111222
Shell,ioos:station:wmo:42882:1,2023-10-02T11:16:00Z,26.2748,-94.4289,8.1,30.9,11111222
Shell,ioos:station:wmo:42882:1,2023-10-02T11:26:00Z,26.2748,-94.4289,8.1,30.9,11111222
Shell,ioos:station:wmo:42882:1,2023-10-02T11:36:00Z,26.2748,-94.4289,8.1,31.0,11111222
Shell,ioos:station:wmo:42882:1,2023-10-02T11:46:00Z,26.2748,-94.4289,8.0,31.0,11111222
Shell,ioos:station:wmo:42882:1,2023-10-02T11:56:00Z,26.2748,-94.4289,8.0,31.0,11111222
Shell,ioos:station:wmo:42882:1,2023-10-02T12:06:00Z,26.2748,-94.4289,8.0,31.0,11111222
Shell,ioos:station:wmo:42882:1,2023-10-02T12:16:00Z,26.2748,-94.4289,8.0,31.0,11111222
Shell,ioos:station:wmo:42882:1,2023-10-02T12:26:00Z,26.2748,-94.4289,8.0,31.0,11111222
Shell,ioos:station:wmo:42882:1,2023-10-02T12:36:00Z,26.2748,-94.4289,7.9,31.0,11111222
Shell,ioos:station:wmo:42882:1,2023-10-02T12:46:00Z,26.2748,-94.4289,7.8,31.0,11111222
Shell,ioos:station:wmo:42882:1,2023-10-02T12:56:00Z,26.2748,-94.4289,7.9,31.0,11111222
Shell,ioos:station:wmo:42882:1,2023-10-02T13:06:00Z,26.2748,-94.4289,7.9,31.0,11111222
Shell,ioos:station:wmo:42882:1,2023-10-02T13:16:00Z,26.2748,-94.4289,7.9,31.0,11111222
Shell,ioos:station:wmo:42882:1,2023-10-02T13:26:00Z,26.2748,-94.4289,7.9,31.0,11111222
Shell,ioos:station:wmo:42882:1,2023-10-02T13:36:00Z,26.2748,-94.4289,8.0,31.0,11111222
Shell,ioos:station:wmo:42882:1,2023-10-02T13:46:00Z,26.2748,-94.4289,8.0,31.1,11111222
Shell,ioos:station:wmo:42882:1,2023-10-02T13:56:00Z,26.2748,-94.4289,8.0,31.1,11111222
Shell,ioos:station:wmo:42882:1,2023-10-02T14:06:00Z,26.2748,-94.4289,8.0,31.1,11111222
Shell,ioos:station:wmo:42882:1,2023-10-02T14:16:00Z,26.2748,-94.4289,7.9,31.1,11111222
Shell,ioos:station:wmo:42882:1,2023-10-02T14:26:00Z,26.2748,-94.4289,7.9,31.1,11111222
Shell,ioos:station:wmo:42882:1,2023-10-02T14:36:00Z,26.2748,-94.4289,7.8,31.1,11111222
Shell,ioos:station:wmo:42882:1,2023-10-02T14:46:00Z,26.2748,-94.4288,7.8,31.1,11111222
Shell,ioos:station:wmo:42882:1,2023-10-02T14:56:00Z,26.2748,-94.4289,7.8,31.1,11111222
Shell,ioos:station:wmo:42882:1,2023-10-02T15:06:00Z,26.2748,-94.4289,7.8,31.1,11111222
Shell,ioos:station:wmo:42882:1,2023-10-02T15:16:00Z,26.2748,-94.4289,7.9,31.2,11111222
Shell,ioos:station:wmo:42882:1,2023-10-02T15:26:00Z,26.2748,-94.4289,7.9,31.2,11111222
Shell,ioos:station:wmo:42882:1,2023-10-02T15:36:00Z,26.2748,-94.4289,7.9,31.2,11111222
Shell,ioos:station:wmo:42882:1,2023-10-02T15:46:00Z,26.2748,-94.4289,7.9,31.1,11111222
Shell,ioos:station:wmo:42882:1,2023-10-02T15:56:00Z,26.2748,-94.4288,7.9,31.1,11111222
Shell,ioos:station:wmo:42882:1,2023-10-02T16:06:00Z,26.2748,-94.4289,7.8,31.2,11111222
Shell,ioos:station:wmo:42882:1,2023-10-02T16:16:00Z,26.2748,-94.4288,7.8,31.2,11111222
Shell,ioos:station:wmo:42882:1,2023-10-02T16:26:00Z,26.2748,-94.4288,7.8,31.1,11111222
Shell,ioos:station:wmo:42882:1,2023-10-02T16:36:00Z,26.2748,-94.4288,7.8,31.1,11111222
Shell,ioos:station:wmo:42882:1,2023-10-02T16:46:00Z,26.2748,-94.4289,7.9,31.1,11111222
Shell,ioos:station:wmo:42882:1,2023-10-02T16:56:00Z,26.2748,-94.4289,7.9,31.1,11111222
Shell,ioos:station:wmo:42882:1,2023-10-02T17:06:00Z,26.2748,-94.4289,7.8,31.1,11111222
Shell,ioos:station:wmo:42882:1,2023-10-02T17:16:00Z,26.2748,-94.4289,7.8,31.1,11111222
Shell,ioos:station:wmo:42882:1,2023-10-02T17:26:00Z,26.2748,-94.4289,7.8,31.1,11111222
Shell,ioos:station:wmo:42882:1,2023-10-02T17:36:00Z,26.2748,-94.4289,7.8,31.1,11111222
Shell,ioos:station:wmo:42882:1,2023-10-02T17:46:00Z,26.2748,-94.4289,7.9,31.1,11111222
Shell,ioos:station:wmo:42882:1,2023-10-02T17:56:00Z,26.2748,-94.4289,7.9,31.1,11111222
Shell,ioos:station:wmo:42882:1,2023-10-02T18:06:00Z,26.2748,-94.4289,7.9,31.1,11111222
Shell,ioos:station:wmo:42882:1,2023-10-02T18:16:00Z,26.2748,-94.4289,7.9,31.1,11111222
Shell,ioos:station:wmo:42882:1,2023-10-02T18:26:00Z,26.2748,-94.4289,7.8,31.1,11111222
Shell,ioos:station:wmo:42882:1,2023-10-02T18:36:00Z,26.2748,-94.4289,7.8,31.1,11111222
Shell,ioos:station:wmo:42882:1,2023-10-02T18:46:00Z,26.2748,-94.4289,7.8,31.1,11111222
Shell,ioos:station:wmo:42882:1,2023-10-02T18:56:00Z,26.2748,-94.4289,7.8,31.1,11111222
Shell,ioos:station:wmo:42882:1,2023-10-02T19:06:00Z,26.2748,-94.4289,7.8,31.1,11111222
Shell,ioos:station:wmo:42882:1,2023-10-02T19:16:00Z,26.2748,-94.4289,7.8,31.1,11111222
Shell,ioos:station:wmo:42882:1,2023-10-02T19:26:00Z,26.2748,-94.4289,7.6,31.1,11111222
Shell,ioos:station:wmo:42882:1,2023-10-02T19:36:00Z,26.2748,-94.4289,7.6,31.1,11111222
Shell,ioos:station:wmo:42882:1,2023-10-02T19:46:00Z,26.2748,-94.4289,8.0,31.1,11111222
Shell,ioos:station:wmo:42882:1,2023-10-02T19:56:00Z,26.2748,-94.4289,7.8,31.0,11111222
Shell,ioos:station:wmo:42882:1,2023-10-02T20:06:00Z,26.2748,-94.4289,7.8,31.0,11111222
Shell,ioos:station:wmo:42882:1,2023-10-02T20:16:00Z,26.2748,-94.4289,7.9,31.0,11111222
Shell,ioos:station:wmo:42882:1,2023-10-02T20:26:00Z,26.2748,-94.4289,7.8,31.0,11111222
Shell,ioos:station:wmo:42882:1,2023-10-02T20:36:00Z,26.2748,-94.4289,7.8,31.0,11111222
Shell,ioos:station:wmo:42882:1,2023-10-02T20:46:00Z,26.2748,-94.4289,7.8,31.0,11111222
Shell,ioos:station:wmo:42882:1,2023-10-02T20:56:00Z,26.2748,-94.4289,7.8,31.0,11111222
Shell,ioos:station:wmo:42882:1,2023-10-02T21:06:00Z,26.2748,-94.4289,7.8,31.0,11111222